Weather reports worldwide

Advertisment
Lanveoc Poulmic, France (7109): temperature & dewpoint: 20.10.2020 11:00:00 - 26.10.2020 11:00:00 (CET)Lanveoc Poulmic, France (7109): wind speed & gusts: 20.10.2020 11:00:00 - 26.10.2020 11:00:00 (CET)Lanveoc Poulmic, France (7109): wind direction: 20.10.2020 11:00:00 - 26.10.2020 11:00:00 (CET)Lanveoc Poulmic, France (7109): reduced air pressure: 20.10.2020 11:00:00 - 26.10.2020 11:00:00 (CET)Lanveoc Poulmic, France (7109): visibility: 20.10.2020 11:00:00 - 26.10.2020 11:00:00 (CET)Lanveoc Poulmic, France (7109): precipitation: 20.10.2020 11:00:00 - 26.10.2020 11:00:00 (CET)
Date & Time tt [°C] td [°C] ff [km/h] ff [kn] fx [km/h] fx [kn] dd ppp [hPa] vv [km] rr [mm]
26.10.2020 11:00:00 12,6 7,9 34 18 53 28 W 1006,4 10 0,0
26.10.2020 10:00:00 11,8 8,3 28 15 61 33 W 1006,3 19 1,0
26.10.2020 09:00:00 11,7 7,8 25 13 42 23 W 1005,8 17 0,0
26.10.2020 08:00:00 10,5 7,4 23 12 53 29 W 1005,0 20 0,2
26.10.2020 07:00:00 11,4 6,9 25 13 46 25 W 1004,6 20 0,0
26.10.2020 06:00:00 11,2 5,9 29 15 50 27 W 1004,0 35 0,0
26.10.2020 05:00:00 11,1 5,8 29 16 50 27 W 1003,5 10 0,0
26.10.2020 04:00:00 10,9 7,0 22 12 41 22 W 1003,3 29 0,0
26.10.2020 03:00:00 10,7 7,8 19 11 38 21 W 1003,4 19 0,0
26.10.2020 02:00:00 10,3 6,8 24 13 40 21 W 1003,1 40 0,0
26.10.2020 01:00:00 10,0 6,9 24 13 41 22 W 1003,0 10 0,8
26.10.2020 00:00:00 9,4 6,8 16 9 39 21 W 1003,1 10 0,4
25.10.2020 23:00:00 10,2 5,8 18 10 30 16 W 1002,8 10 0,0
25.10.2020 22:00:00 9,8 6,0 19 10 30 16 W 1002,3 39 0,0
25.10.2020 21:00:00 9,2 5,9 18 10 51 27 WSW 1001,8 10 0,0
25.10.2020 20:00:00 8,7 5,4 26 14 48 26 W 1001,5 10 0,6
25.10.2020 19:00:00 9,1 5,3 16 9 46 25 SW 1000,7 10 0,0
25.10.2020 18:00:00 10,6 4,5 34 18 62 33 WSW 999,9 10 0,0
25.10.2020 17:00:00 12,0 6,7 26 14 42 23 SW 999,8 25 0,0
25.10.2020 16:00:00 12,0 6,1 28 15 44 24 WSW 999,3 37 0,0
25.10.2020 15:00:00 12,9 7,6 28 15 43 23 WSW 999,2 18 0,0
25.10.2020 14:00:00 11,5 7,6 16 9 49 26 SW 999,7 10 0,2
25.10.2020 13:00:00 13,7 7,9 19 10 46 25 WSW 999,7 20 0,0
25.10.2020 12:00:00 12,4 7,5 24 13 49 27 SW 999,6 10 0,0
25.10.2020 11:00:00 13,2 7,6 29 16 50 27 SW 999,8 19 0,0
25.10.2020 10:00:00 12,1 7,0 30 16 49 26 SW 1000,0 19 0,0
25.10.2020 09:00:00 10,8 7,5 23 12 39 21 SW 999,8 20 0,0
25.10.2020 08:00:00 6,6 5,2 10 5 61 33 S 999,9 20 4,7
25.10.2020 07:00:00 11,0 7,3 21 11 39 21 SSW 999,6 18 0,0
25.10.2020 06:00:00 11,3 6,0 25 13 52 28 SW 999,9 48 0,0
25.10.2020 05:00:00 10,6 7,1 18 10 35 19 SW 999,7 20 0,0
25.10.2020 04:00:00 10,8 7,5 17 9 40 21 SW 1000,0 19 0,0
25.10.2020 03:00:00 10,7 6,6 24 13 44 24 SW 1000,5 38 1,2
25.10.2020 02:00:00 10,8 7,8 19 10 29 16 SSW 1001,1 20 0,0
25.10.2020 01:00:00 - - - - - - - - - -
25.10.2020 00:00:00 11,7 9,6 19 10 28 15 SW 1001,3 18 0,0
24.10.2020 23:00:00 11,7 8,7 16 9 41 22 SW 1001,2 10 0,0
24.10.2020 22:00:00 11,9 10,3 21 11 36 20 SW 1001,0 16 0,0
24.10.2020 21:00:00 11,6 10,3 26 14 44 24 SW 1001,3 17 0,0
24.10.2020 20:00:00 11,3 9,2 25 13 76 41 SW 1000,9 30 1,0
24.10.2020 19:00:00 13,0 12,1 31 17 57 31 SSW 1000,7 10 0,2
24.10.2020 18:00:00 12,8 11,7 31 17 54 29 SSW 1000,4 13 0,8
24.10.2020 17:00:00 12,9 12,0 34 18 74 40 SSW 1001,3 10 6,7
24.10.2020 16:00:00 13,7 12,3 37 20 72 39 SW 1001,8 1,6 4,2
24.10.2020 15:00:00 15,6 13,8 44 24 76 41 SSW 1002,2 8 0,0
24.10.2020 14:00:00 15,3 13,5 38 21 64 35 SSW 1003,7 11 0,0
24.10.2020 13:00:00 15,4 13,4 36 19 71 38 SSW 1004,9 10 0,0
24.10.2020 12:00:00 15,4 13,6 36 20 65 35 SSW 1005,9 11 0,0
24.10.2020 11:00:00 15,5 13,5 37 20 64 34 SSW 1006,7 16 0,0
24.10.2020 10:00:00 15,0 14,0 42 23 65 35 SSW 1007,2 10 0,0
24.10.2020 09:00:00 14,1 13,5 27 15 53 29 SSW 1007,9 3,8 0,0
24.10.2020 08:00:00 13,9 12,5 28 15 45 25 SSW 1008,5 10 0,0
24.10.2020 07:00:00 13,7 12,6 24 13 40 21 S 1009,1 10 0,0
24.10.2020 06:00:00 13,2 12,3 21 11 37 20 S 1010,0 15 0,0
24.10.2020 05:00:00 13,1 11,8 24 13 55 30 SSW 1010,5 21 0,0
24.10.2020 04:00:00 13,5 12,4 34 18 53 29 SSW 1010,9 28 0,2
24.10.2020 03:00:00 13,2 12,4 21 11 35 19 S 1011,4 10 0,0
24.10.2020 02:00:00 12,8 12,2 20 11 35 19 S 1012,0 20 0,0
24.10.2020 01:00:00 12,5 11,9 21 11 34 19 SSW 1012,8 10 0,0
24.10.2020 00:00:00 12,1 11,6 16 9 27 15 SSW 1013,6 21 0,0
23.10.2020 23:00:00 12,1 11,6 16 9 26 14 SSW 1013,8 20 0,0
23.10.2020 22:00:00 11,9 11,4 15 8 21 12 SSW 1013,7 10 0,0
23.10.2020 21:00:00 11,6 11,1 9 5 18 10 SSW 1013,6 13 0,0
23.10.2020 20:00:00 11,4 10,9 9 5 18 10 SSW 1013,7 10 0,0
23.10.2020 19:00:00 12,0 11,4 10 5 16 9 SSW 1013,6 5 0,2
23.10.2020 18:00:00 12,1 11,3 8 5 15 8 SSW 1013,3 14 0,0
23.10.2020 17:00:00 12,2 11,4 10 5 26 14 WSW 1013,2 4,8 1,0
23.10.2020 16:00:00 12,6 11,7 21 11 43 23 W 1013,1 4,6 0,6
23.10.2020 15:00:00 13,8 11,7 23 13 44 24 SW 1012,8 4,9 0,2
23.10.2020 14:00:00 14,6 10,0 30 16 44 24 SW 1012,7 20 0,0
23.10.2020 13:00:00 14,5 9,9 24 13 40 22 WSW 1013,0 10 0,0
23.10.2020 12:00:00 13,7 9,3 23 13 35 19 WSW 1013,1 20 0,0
23.10.2020 11:00:00 13,0 9,3 20 11 30 16 WSW 1012,5 27 0,0
23.10.2020 10:00:00 12,6 10,1 19 10 31 17 WSW 1012,1 26 0,0
23.10.2020 09:00:00 11,9 10,8 15 8 36 19 W 1011,5 10 0,0
23.10.2020 08:00:00 12,5 11,7 12 7 26 14 WSW 1010,7 18 0,0
23.10.2020 07:00:00 13,1 12,5 14 8 31 17 SW 1010,1 13 2,4
23.10.2020 06:00:00 13,6 12,8 18 10 33 18 SSW 1009,9 12 0,2
23.10.2020 05:00:00 13,3 12,7 18 10 29 16 SSW 1009,8 10 0,0
23.10.2020 04:00:00 13,1 12,6 14 8 22 12 S 1010,1 20 0,0
23.10.2020 03:00:00 12,9 12,4 15 8 22 12 S 1010,5 10 0,0
23.10.2020 02:00:00 12,8 12,2 13 7 19 10 S 1010,9 21 0,0
23.10.2020 01:00:00 12,6 12,0 10 5 16 9 S 1011,1 17 0,0
23.10.2020 00:00:00 12,5 12,0 11 6 19 11 S 1011,2 20 0,0
22.10.2020 23:00:00 12,3 11,7 10 6 18 10 S 1011,3 20 0,0
22.10.2020 22:00:00 12,4 11,9 9 5 16 9 S 1011,4 18 0,0
22.10.2020 21:00:00 12,8 12,2 11 6 18 10 S 1011,3 14 0,0
22.10.2020 20:00:00 13,0 12,1 10 5 19 10 S 1011,2 19 0,0
22.10.2020 19:00:00 13,7 12,4 10 6 24 13 S 1010,8 28 0,0
22.10.2020 18:00:00 14,5 12,2 13 7 24 13 S 1010,5 10 0,0
22.10.2020 17:00:00 16,0 12,4 17 9 30 16 S 1010,4 31 0,0
22.10.2020 16:00:00 17,0 11,7 18 10 26 14 SSW 1010,3 23 0,0
22.10.2020 15:00:00 17,0 11,7 16 8 26 14 S 1010,2 23 0,0
22.10.2020 14:00:00 17,1 11,8 15 8 26 14 S 1010,3 23 0,0
22.10.2020 13:00:00 16,6 12,3 15 8 24 13 S 1010,6 10 0,0
22.10.2020 12:00:00 15,5 13,0 13 7 23 12 S 1010,7 16 0,0
22.10.2020 11:00:00 14,4 13,9 11 6 19 10 S 1010,6 15 0,0
22.10.2020 10:00:00 13,6 13,3 9 5 18 10 - 1010,4 9 0,0
22.10.2020 09:00:00 13,5 13,2 9 5 21 11 S 1009,9 10 0,0
22.10.2020 08:00:00 13,2 12,9 8 5 15 8 S 1009,1 5 0,0
22.10.2020 07:00:00 13,2 12,9 11 6 17 9 S 1008,7 1,1 0,0
22.10.2020 06:00:00 13,3 13,0 8 4 15 8 S 1008,5 4,1 0,2
22.10.2020 05:00:00 13,3 13,0 9 5 17 9 SSW 1008,1 8 0,0
22.10.2020 04:00:00 13,1 12,8 9 5 15 8 S 1008,0 6 0,0
22.10.2020 03:00:00 12,7 12,2 8 5 15 8 SSW 1008,1 6 0,0
22.10.2020 02:00:00 12,7 12,2 9 5 19 10 S 1008,2 9 0,0
22.10.2020 01:00:00 12,7 12,1 11 6 17 9 S 1008,0 11 0,0
22.10.2020 00:00:00 12,8 12,0 9 5 21 11 S 1007,4 10 0,0
21.10.2020 23:00:00 12,8 11,9 14 7 23 12 SSW 1007,1 14 0,0
21.10.2020 22:00:00 12,9 11,8 13 7 25 13 SSW 1006,6 15 0,0
21.10.2020 21:00:00 13,1 11,8 15 8 26 14 SSW 1006,1 10 0,0
21.10.2020 20:00:00 13,0 11,4 16 9 27 15 SSW 1005,6 18 0,0
21.10.2020 19:00:00 13,1 11,0 14 7 31 17 SSW 1005,0 18 0,0
21.10.2020 18:00:00 13,8 11,1 17 9 37 20 SSW 1004,1 20 0,0
21.10.2020 17:00:00 15,0 11,0 21 11 41 22 SSW 1003,6 16 0,0
21.10.2020 16:00:00 15,6 10,4 27 15 44 24 SSW 1002,9 11 0,0
21.10.2020 15:00:00 15,6 11,4 29 16 49 26 SW 1002,1 11 0,0
21.10.2020 14:00:00 15,1 12,4 33 18 51 27 WSW 1001,1 11 0,0
21.10.2020 13:00:00 14,7 13,9 27 15 41 22 SW 999,5 12 0,4
21.10.2020 12:00:00 14,2 13,6 19 11 36 19 SSW 998,5 8 0,0
21.10.2020 11:00:00 13,9 13,4 21 11 41 22 SW 997,6 10 0,2
21.10.2020 10:00:00 13,7 13,4 27 15 42 23 WSW 996,2 5 3,0
21.10.2020 09:00:00 14,5 14,2 21 11 30 16 SW 994,6 4,9 1,4
21.10.2020 08:00:00 14,1 13,8 13 7 18 10 S 993,1 2,9 0,2
21.10.2020 07:00:00 14,2 13,7 11 6 16 8 SSW 992,0 9 1,6
21.10.2020 06:00:00 14,3 13,8 9 5 13 7 SSW 991,5 2,7 4,5
21.10.2020 05:00:00 14,5 14,0 8 4 14 7 SSE 991,2 3,7 2,4
21.10.2020 04:00:00 14,8 14,3 8 4 16 9 SE 991,6 5 0,6
21.10.2020 03:00:00 15,0 14,2 11 6 23 13 SE 992,5 9 0,2
21.10.2020 02:00:00 15,1 14,1 14 8 26 14 SSE 993,6 10 0,0
21.10.2020 01:00:00 15,2 14,1 16 9 30 16 SSE 994,3 10 0,0
21.10.2020 00:00:00 15,1 13,8 18 10 29 16 SE 994,8 13 0,0
20.10.2020 23:00:00 14,9 13,4 18 10 40 21 SE 995,8 10 0,0
20.10.2020 22:00:00 14,7 13,4 21 11 32 18 SE 996,3 11 0,0
20.10.2020 21:00:00 14,5 13,0 19 11 29 16 ESE 996,5 16 0,0
20.10.2020 20:00:00 14,8 11,9 17 9 32 17 SE 997,4 34 0,0
20.10.2020 19:00:00 15,5 11,9 18 10 28 15 SSE 998,2 55 0,0
20.10.2020 18:00:00 15,8 12,0 17 9 40 22 S 998,1 56 0,0
20.10.2020 17:00:00 16,8 12,1 25 14 47 26 S 998,8 28 0,0
20.10.2020 16:00:00 17,0 13,1 30 16 50 27 S 999,2 16 0,0
20.10.2020 15:00:00 17,3 13,2 29 16 55 30 S 999,8 15 0,0
20.10.2020 14:00:00 17,7 13,4 34 18 56 30 S 1000,3 10 0,0
20.10.2020 13:00:00 17,2 13,7 27 15 49 27 S 1000,9 18 0,0
20.10.2020 12:00:00 16,5 13,6 29 16 51 28 S 1001,2 18 0,0
20.10.2020 11:00:00 15,8 13,5 34 18 52 28 S 1001,2 10 0,0

tt = temperature
td = dewpoint
ff = wind speed
fx = gusts
dd = wind direction
ppp = reduced air pressure
vv = visibility
rr = precipitation

Next stations